Location: Newark
(42.7133°N, 87.7910°W)
Time: 05:19:14
(UTC+00:00)

Envisat - Pass Details

Date: 03 September 2019
Orbit: 764 x 766 km, 98.1° (Epoch: 19 September)

Event Time Altitude Azimuth Distance (km) Brightness Sun altitude
Rises 01:31:53 0° 217° (SW) 3,220 6.4 -12.7°
Reaches altitude 10° 01:35:37 10° 246° (WSW) 2,300 6.1 -13.3°
Maximum altitude 01:37:47 13° 272° (W) 2,120 6.4 -13.7°
Drops below altitude 10° 01:39:59 10° 297° (WNW) 2,307 6.9 -14.1°
Sets 01:43:45 0° 326° (NW) 3,240 7.3 -14.7°
